User: anonymous   Login
Location: Unspecified
(0.0000°N, 0.0000°E)
Time: 10:35:07
(UTC+00:00)
Language:

GENESIS II - Orbit

View from above orbital plane
View from above orbital plane
View from above satellite
View from above satellite

Ground track
Ground track

The orbit data is extracted from the following two-line orbital elements,

1 31789U 07028A   19047.73423530  .00000255  00000-0  23205-4 0  9991
2 31789  64.5035 133.5652 0040885 304.5833  55.1434 15.16812123641338
Epoch (UTC): 16 February 2019 17:37:17
Eccentricity: 0.0040885
inclination: 64.5035°
perigee height: 487 km
apogee height: 543 km
right ascension of ascending node: 133.5652°
argument of perigee: 304.5833°
revolutions per day: 15.16812123
mean anomaly at epoch: 55.1434°
orbit number at epoch: 64133

The dashed part of the orbit path shows where the satellite is in the earth's shadow,  

DLR